When you browse on this site, cookies collect data to enhance your experience and personalize the content and advertising you see.
Visit our Privacy Policy to learn more. By continuing to use the site, you agree to this use of cookies and data.
  • In Österreich
  • Länderverzeichnis
  • Für 7 Tage
  • Wassertemperatur
  • Satellitenkarten
  • Wetterkarte
  • News
  • Widgets
  • user-avatar
    Anmelden

    Stündliche Wetter Saidpur

    Heute, 20 April, Samstag

    Zeit Temperatur Niederschläge Wind Luftdruck Luftfeuchtigkeit
    00:00 +31°C° 0 mm 2 m/S 752 mmHg 31%
    01:00 +30°C° 0 mm 2 m/S 752 mmHg 32%
    02:00 +30°C° 0 mm 2 m/S 752 mmHg 33%
    03:00 +29°C° 0 mm 2 m/S 751 mmHg 34%
    04:00 +29°C° 0 mm 2 m/S 751 mmHg 35%
    05:00 +29°C° 0 mm 2 m/S 752 mmHg 37%
    06:00 +28°C° 0 mm 2 m/S 752 mmHg 41%
    07:00 +30°C° 0 mm 3 m/S 752 mmHg 37%
    08:00 +33°C° 0 mm 4 m/S 752 mmHg 33%
    09:00 +36°C° 0 mm 4 m/S 753 mmHg 29%
    10:00 +37°C° 0 mm 4 m/S 752 mmHg 25%
    11:00 +38°C° 0 mm 4 m/S 752 mmHg 22%
    12:00 +40°C° 0 mm 4 m/S 752 mmHg 20%
    13:00 +40°C° 0 mm 4 m/S 751 mmHg 20%
    14:00 +40°C° 0 mm 4 m/S 751 mmHg 20%
    15:00 +38°C° 0 mm 4 m/S 750 mmHg 20%
    16:00 +38°C° 0 mm 4 m/S 750 mmHg 22%
    17:00 +37°C° 0 mm 3 m/S 750 mmHg 23%
    18:00 +37°C° 0 mm 3 m/S 749 mmHg 25%
    19:00 +35°C° 0 mm 3 m/S 750 mmHg 26%
    20:00 +34°C° 0 mm 3 m/S 750 mmHg 28%
    21:00 +33°C° 0 mm 3 m/S 751 mmHg 29%
    22:00 +32°C° 0 mm 2 m/S 751 mmHg 30%
    23:00 +31°C° 0 mm 2 m/S 751 mmHg 31%

    Morgen, 21 April, Sonntag

    Zeit Temperatur Niederschläge Wind Luftdruck Luftfeuchtigkeit
    00:00 +31°C° 0 mm 2 m/S 751 mmHg 32%
    01:00 +30°C° 0 mm 2 m/S 750 mmHg 34%
    02:00 +29°C° 0 mm 1 m/S 750 mmHg 35%
    03:00 +29°C° 0 mm 1 m/S 750 mmHg 37%
    04:00 +28°C° 0 mm 1 m/S 750 mmHg 38%
    05:00 +28°C° 0 mm 1 m/S 750 mmHg 39%
    06:00 +28°C° 0 mm 1 m/S 750 mmHg 41%
    07:00 +30°C° 0 mm 2 m/S 751 mmHg 38%
    08:00 +32°C° 0 mm 2 m/S 752 mmHg 35%
    09:00 +34°C° 0 mm 3 m/S 752 mmHg 33%
    10:00 +36°C° 0 mm 2 m/S 752 mmHg 30%
    11:00 +37°C° 0 mm 2 m/S 752 mmHg 28%
    12:00 +39°C° 0 mm 2 m/S 752 mmHg 25%
    13:00 +39°C° 0 mm 2 m/S 751 mmHg 22%
    14:00 +40°C° 0 mm 3 m/S 750 mmHg 19%
    15:00 +42°C° 0 mm 3 m/S 749 mmHg 17%
    16:00 +40°C° 0 mm 3 m/S 749 mmHg 18%
    17:00 +39°C° 0 mm 2 m/S 749 mmHg 20%
    18:00 +38°C° 0 mm 2 m/S 749 mmHg 22%
    19:00 +37°C° 0 mm 2 m/S 749 mmHg 24%
    20:00 +36°C° 0 mm 2 m/S 750 mmHg 27%
    21:00 +34°C° 0 mm 3 m/S 750 mmHg 29%
    22:00 +34°C° 0 mm 3 m/S 750 mmHg 32%
    23:00 +33°C° 0 mm 3 m/S 750 mmHg 35%

    übermorgen, 22 April, Montag

    Zeit Temperatur Niederschläge Wind Luftdruck Luftfeuchtigkeit
    00:00 +32°C° 0 mm 4 m/S 750 mmHg 37%
    01:00 +31°C° 0 mm 3 m/S 750 mmHg 40%
    02:00 +30°C° 0 mm 3 m/S 750 mmHg 42%
    03:00 +29°C° 0 mm 3 m/S 750 mmHg 44%
    04:00 +29°C° 0 mm 3 m/S 750 mmHg 45%
    05:00 +29°C° 0 mm 3 m/S 750 mmHg 45%
    06:00 +29°C° 0 mm 3 m/S 751 mmHg 45%
    07:00 +30°C° 0.1 mm 4 m/S 751 mmHg 45%
    08:00 +30°C° 0.1 mm 4 m/S 752 mmHg 44%
    09:00 +32°C° 0.1 mm 5 m/S 752 mmHg 44%
    10:00 +34°C° 0 mm 4 m/S 752 mmHg 40%
    11:00 +36°C° 0 mm 4 m/S 752 mmHg 35%
    12:00 +38°C° 0 mm 3 m/S 752 mmHg 31%
    13:00 +39°C° 0 mm 2 m/S 751 mmHg 28%
    14:00 +40°C° 0 mm 2 m/S 750 mmHg 26%
    15:00 +41°C° 0 mm 1 m/S 749 mmHg 24%
    16:00 +39°C° 0.1 mm 3 m/S 749 mmHg 27%
    17:00 +39°C° 0.1 mm 5 m/S 749 mmHg 30%
    18:00 +36°C° 0.1 mm 6 m/S 749 mmHg 33%
    19:00 +35°C° 0.4 mm 5 m/S 750 mmHg 35%
    20:00 +34°C° 0.4 mm 4 m/S 751 mmHg 36%
    21:00 +33°C° 0.4 mm 3 m/S 752 mmHg 38%
    22:00 +33°C° 0 mm 3 m/S 752 mmHg 40%
    23:00 +31°C° 0 mm 2 m/S 752 mmHg 43%

    23 April, Dienstag

    Zeit Temperatur Niederschläge Wind Luftdruck Luftfeuchtigkeit
    00:00 +31°C° 0 mm 2 m/S 752 mmHg 45%
    01:00 +30°C° 0 mm 2 m/S 752 mmHg 47%
    02:00 +29°C° 0 mm 2 m/S 752 mmHg 50%
    03:00 +29°C° 0 mm 3 m/S 751 mmHg 53%
    04:00 +28°C° 0 mm 3 m/S 751 mmHg 54%
    05:00 +28°C° 0 mm 3 m/S 752 mmHg 56%
    06:00 +28°C° 0 mm 3 m/S 752 mmHg 58%
    07:00 +29°C° 0 mm 3 m/S 753 mmHg 53%
    08:00 +31°C° 0 mm 3 m/S 753 mmHg 49%
    09:00 +34°C° 0 mm 4 m/S 754 mmHg 45%
    10:00 +35°C° 0 mm 4 m/S 754 mmHg 41%
    11:00 +37°C° 0 mm 4 m/S 753 mmHg 38%
    12:00 +38°C° 0 mm 4 m/S 753 mmHg 34%
    13:00 +38°C° 0 mm 3 m/S 752 mmHg 32%
    14:00 +39°C° 0 mm 3 m/S 752 mmHg 30%
    15:00 +40°C° 0 mm 2 m/S 751 mmHg 28%
    16:00 +39°C° 0 mm 1 m/S 751 mmHg 29%
    17:00 +39°C° 0 mm 1 m/S 750 mmHg 30%
    18:00 +36°C° 0 mm 0 m/S 750 mmHg 31%
    19:00 +37°C° 0 mm 1 m/S 751 mmHg 33%
    20:00 +36°C° 0 mm 2 m/S 752 mmHg 35%
    21:00 +35°C° 0 mm 2 m/S 753 mmHg 37%
    22:00 +34°C° 0.5 mm 3 m/S 753 mmHg 43%
    23:00 +31°C° 0.5 mm 3 m/S 753 mmHg 49%

    24 April, Mittwoch

    Zeit Temperatur Niederschläge Wind Luftdruck Luftfeuchtigkeit
    00:00 +30°C° 0.5 mm 4 m/S 753 mmHg 56%
    01:00 +30°C° 0 mm 3 m/S 752 mmHg 57%
    02:00 +30°C° 0 mm 2 m/S 752 mmHg 58%
    03:00 +29°C° 0 mm 2 m/S 752 mmHg 59%
    04:00 +29°C° 0 mm 2 m/S 752 mmHg 60%
    05:00 +29°C° 0 mm 2 m/S 753 mmHg 61%
    06:00 +29°C° 0 mm 3 m/S 753 mmHg 62%
    07:00 +30°C° 0 mm 3 m/S 754 mmHg 57%
    08:00 +33°C° 0 mm 4 m/S 754 mmHg 52%
    09:00 +34°C° 0 mm 5 m/S 755 mmHg 48%
    10:00 +35°C° 0 mm 4 m/S 754 mmHg 43%
    11:00 +37°C° 0 mm 4 m/S 754 mmHg 39%
    12:00 +38°C° 0 mm 4 m/S 754 mmHg 34%
    13:00 +39°C° 0 mm 3 m/S 753 mmHg 32%
    14:00 +40°C° 0 mm 3 m/S 752 mmHg 30%
    15:00 +41°C° 0 mm 2 m/S 751 mmHg 28%
    16:00 +40°C° 0 mm 2 m/S 751 mmHg 29%
    17:00 +40°C° 0 mm 1 m/S 750 mmHg 29%
    18:00 +40°C° 0 mm 1 m/S 750 mmHg 30%
    19:00 +37°C° 0 mm 1 m/S 751 mmHg 33%
    20:00 +37°C° 0 mm 2 m/S 751 mmHg 36%
    21:00 +36°C° 0 mm 3 m/S 752 mmHg 39%
    22:00 +35°C° 0 mm 3 m/S 752 mmHg 41%
    23:00 +34°C° 0 mm 3 m/S 752 mmHg 43%

    25 April, Donnerstag

    Zeit Temperatur Niederschläge Wind Luftdruck Luftfeuchtigkeit
    00:00 +34°C° 0 mm 3 m/S 752 mmHg 45%
    01:00 +33°C° 0.2 mm 3 m/S 752 mmHg 48%
    02:00 +31°C° 0.2 mm 3 m/S 751 mmHg 51%
    03:00 +30°C° 0.2 mm 3 m/S 751 mmHg 54%
    04:00 +30°C° 0 mm 3 m/S 752 mmHg 56%
    05:00 +29°C° 0 mm 3 m/S 752 mmHg 58%
    06:00 +29°C° 0 mm 3 m/S 752 mmHg 60%
    07:00 +31°C° 0 mm 3 m/S 753 mmHg 56%
    08:00 +33°C° 0 mm 4 m/S 753 mmHg 52%
    09:00 +35°C° 0 mm 5 m/S 754 mmHg 47%
    10:00 +36°C° 0 mm 5 m/S 753 mmHg 43%
    11:00 +39°C° 0 mm 5 m/S 753 mmHg 38%
    12:00 +40°C° 0 mm 5 m/S 752 mmHg 34%
    13:00 +41°C° 0 mm 4 m/S 752 mmHg 31%
    14:00 +42°C° 0 mm 4 m/S 751 mmHg 28%
    15:00 +43°C° 0 mm 4 m/S 750 mmHg 26%
    16:00 +43°C° 0 mm 3 m/S 750 mmHg 27%
    17:00 +42°C° 0 mm 3 m/S 749 mmHg 28%
    18:00 +40°C° 0 mm 3 m/S 749 mmHg 29%
    19:00 +39°C° 0 mm 3 m/S 750 mmHg 33%
    20:00 +37°C° 0 mm 4 m/S 750 mmHg 36%
    21:00 +36°C° 0 mm 4 m/S 751 mmHg 40%
    22:00 +35°C° 0 mm 4 m/S 751 mmHg 41%
    23:00 +35°C° 0 mm 4 m/S 751 mmHg 42%
    Mehr zeigen